This demonstration page uses our WeatherBlox Daily Observations layout. Learn more.

Left ArrowRight Arrow

39.92423, -83.80882

Hourly Observations for June 18, 2020

Temp ( °F °C ) Dew Point ( °F °C ) Humidity (%) Winds ( mph kmh ) Pressure ( in mb ) Visibility ( mi km ) Precip ( " mm )
12:56 am 00:56 Clear 62 16.7 57 13.9 84 84 NE 5 7 30.10 1019 10 16 N/A
1:56 am 01:56 Mostly Cloudy 64 17.8 57 13.9 78 78 ENE 5 7 30.08 1019 10 16 N/A
2:56 am 02:56 Mostly Cloudy 62 16.7 58 14.4 86 86 NNW 6 9 30.07 1018 10 16 N/A
3:56 am 03:56 Clear 63 17.2 59 15 87 87 N N/A 30.06 1018 10 16 N/A
4:56 am 04:56 Clear 63 17.2 59 15 87 87 E 5 7 30.06 1018 10 16 N/A
5:56 am 05:56 Clear 62 16.7 59 15 90 90 E 3 6 30.06 1018 10 16 N/A
6:56 am 06:56 Sunny 61 16.1 59 15 93 93 N N/A 30.06 1018 10 16 N/A
7:56 am 07:56 Sunny 64 17.8 60 15.6 87 87 N 5 7 30.09 1019 10 16 N/A
8:56 am 08:56 Sunny 68 20 61 16.1 78 78 N N/A 30.10 1019 10 16 N/A
9:56 am 09:56 Partly Cloudy 72 22.2 62 16.7 71 71 VRB 5 7 30.10 1019 10 16 N/A
10:56 am 10:56 Cloudy with Light Rain 71 21.7 63 17.2 76 76 N N/A 30.10 1019 10 16 0.00 0.00
11:56 am 11:56 Mostly Cloudy 74 23.3 62 16.7 67 67 N N/A 30.10 1019 10 16 0.00 0.00
12:56 pm 12:56 Mostly Cloudy 76 24.4 61 16.1 60 60 NNW 10 17 30.07 1018 10 16 N/A
1:56 pm 13:56 Cloudy with Light Rain 75 23.9 63 17.2 66 66 N 7 11 30.05 1018 10 16 0.00 0.00
2:56 pm 14:56 Partly Cloudy 77 25 62 16.7 60 60 VRB 3 6 30.03 1017 10 16 0.00 0.00
3:56 pm 15:56 Cloudy 74 23.3 64 17.8 71 71 NNW 6 9 30.03 1017 10 16 0.01 0.25
4:56 pm 16:56 Mostly Cloudy 78 25.6 63 17.2 60 60 ENE 8 13 29.99 1016 10 16 N/A
5:56 pm 17:56 Partly Cloudy 78 25.6 62 16.7 58 58 NNE 3 6 29.99 1016 10 16 N/A
6:29 pm 18:29 Mostly Cloudy with Thunderstorms 79 26 63 17 58 58 NW 5 7 29.96 1015 10 16 N/A
6:56 pm 18:56 Cloudy with Thunderstorms 65 18.3 63 17.2 93 93 E 30 48 30.01 1016 5 8 0.01 0.25
7:10 pm 19:10 Cloudy with Thunderstorms 68 20 63 17 83 83 SSE 14 22 30.00 1016 10 16 0.04 1.02
7:38 pm 19:38 Mostly Sunny 64 18 63 17 94 94 SSE 7 11 30.00 1016 10 16 0.12 3.05
7:56 pm 19:56 Sunny 66 18.9 63 17.2 90 90 ESE 5 7 30.02 1017 10 16 0.16 4.06
8:56 pm 20:56 Partly Cloudy 66 18.9 66 18.9 100 100 N N/A 30.02 1017 10 16 0.02 0.51
9:56 pm 21:56 Mostly Cloudy with Mist and Fog 65 18.3 65 18.3 100 100 ESE 3 6 30.02 1017 3 5 N/A
10:56 pm 22:56 Partly Cloudy 65 18.3 65 18.3 100 100 N N/A 30.03 1017 9 14 N/A
11:49 pm 23:49 Mostly Cloudy with Mist and Fog 64 18 64 18 100 100 N N/A 30.02 1017 2 3 N/A
11:56 pm 23:56 Mostly Cloudy with Mist and Fog 64 17.8 64 17.8 100 100 N N/A 30.03 1017 2 3 N/A
11:58 pm 23:58 Mostly Cloudy with Mist and Fog 64 18 64 18 100 100 N N/A 30.02 1017 3 5 N/A

Powered by AerisWeather